Time,TemperatureF,DewpointF,PressureIn,WindDirection,WindDirectionDegrees,WindSpeedMPH,WindSpeedGustMPH,Humidity,HourlyPrecipIn,Conditions,Clouds,dailyrainin,SoftwareType,DateUTC
2013-03-19 00:02:00,49.0,45.0,29.94,ENE,77,0.0,-999.0,87,-99.99,,,-99.99,,2013-03-19 07:02:00,
2013-03-19 00:11:00,49.0,45.0,29.94,ENE,77,0.0,-999.0,87,-99.99,,,-99.99,,2013-03-19 07:11:00,
2013-03-19 00:21:00,49.0,46.0,29.94,ENE,77,0.0,-999.0,88,-99.99,,,-99.99,,2013-03-19 07:21:00,
2013-03-19 00:32:00,49.0,46.0,29.94,ENE,77,0.0,-999.0,88,-99.99,,,-99.99,,2013-03-19 07:32:00,
2013-03-19 00:42:00,49.0,46.0,29.94,ENE,77,0.0,-999.0,88,-99.99,,,-99.99,,2013-03-19 07:42:00,
2013-03-19 00:52:00,49.0,46.0,29.93,ENE,77,0.0,-999.0,88,-99.99,,,-99.99,,2013-03-19 07:52:00,
2013-03-19 01:02:00,49.0,46.0,29.92,ENE,77,0.0,-999.0,88,-99.99,,,-99.99,,2013-03-19 08:02:00,
2013-03-19 01:12:00,49.0,46.0,29.92,ENE,77,0.0,-999.0,88,-99.99,,,-99.99,,2013-03-19 08:12:00,
2013-03-19 01:21:00,49.0,46.0,29.92,ENE,77,0.0,-999.0,88,-99.99,,,-99.99,,2013-03-19 08:21:00,
2013-03-19 01:32:00,48.0,45.0,29.92,ENE,77,0.0,-999.0,88,-99.99,,,-99.99,,2013-03-19 08:32:00,
2013-03-19 01:52:00,48.0,45.0,29.91,ENE,77,0.0,-999.0,88,-99.99,,,-99.99,,2013-03-19 08:52:00,
2013-03-19 02:02:00,48.0,45.0,29.92,ENE,77,0.0,-999.0,89,-99.99,,,-99.99,,2013-03-19 09:02:00,
2013-03-19 02:12:00,48.0,45.0,29.92,ENE,77,0.0,-999.0,89,-99.99,,,-99.99,,2013-03-19 09:12:00,
2013-03-19 02:22:00,48.0,45.0,29.92,ENE,77,0.0,-999.0,89,-99.99,,,-99.99,,2013-03-19 09:22:00,
2013-03-19 02:32:00,48.0,45.0,29.93,ENE,77,0.0,-999.0,89,-99.99,,,-99.99,,2013-03-19 09:32:00,
2013-03-19 02:42:00,48.0,45.0,29.93,ENE,77,0.0,-999.0,89,-99.99,,,-99.99,,2013-03-19 09:42:00,
2013-03-19 02:52:00,47.0,44.0,29.93,ENE,77,0.0,-999.0,89,-99.99,,,-99.99,,2013-03-19 09:52:00,
2013-03-19 03:03:00,47.0,44.0,29.93,ENE,77,0.0,-999.0,89,-99.99,,,-99.99,,2013-03-19 10:03:00,
2013-03-19 03:12:00,47.0,44.0,29.93,ENE,77,0.0,-999.0,89,-99.99,,,-99.99,,2013-03-19 10:12:00,
2013-03-19 03:22:00,47.0,44.0,29.94,ENE,77,0.0,-999.0,88,-99.99,,,-99.99,,2013-03-19 10:22:00,
2013-03-19 03:32:00,47.0,44.0,29.93,ENE,77,0.0,-999.0,90,-99.99,,,-99.99,,2013-03-19 10:32:00,
2013-03-19 03:42:00,47.0,44.0,29.93,ENE,77,0.0,-999.0,90,-99.99,,,-99.99,,2013-03-19 10:42:00,
2013-03-19 03:52:00,47.0,44.0,29.92,ENE,77,0.0,-999.0,90,-99.99,,,-99.99,,2013-03-19 10:52:00,
2013-03-19 04:02:00,47.0,44.0,29.92,ENE,77,0.0,-999.0,90,-99.99,,,-99.99,,2013-03-19 11:02:00,
2013-03-19 04:11:00,47.0,44.0,29.92,ENE,77,0.0,-999.0,90,-99.99,,,-99.99,,2013-03-19 11:11:00,
2013-03-19 04:22:00,46.0,43.0,29.92,ENE,77,0.0,-999.0,90,-99.99,,,-99.99,,2013-03-19 11:22:00,
2013-03-19 04:32:00,46.0,43.0,29.91,ENE,77,0.0,-999.0,90,-99.99,,,-99.99,,2013-03-19 11:32:00,
2013-03-19 04:42:00,46.0,43.0,29.91,ENE,77,0.0,-999.0,90,-99.99,,,-99.99,,2013-03-19 11:42:00,
2013-03-19 04:52:00,46.0,44.0,29.90,ENE,77,0.0,-999.0,91,-99.99,,,-99.99,,2013-03-19 11:52:00,
2013-03-19 05:02:00,46.0,44.0,29.91,ENE,77,0.0,-999.0,91,-99.99,,,-99.99,,2013-03-19 12:02:00,
2013-03-19 05:12:00,46.0,44.0,29.91,ENE,77,0.0,-999.0,91,-99.99,,,-99.99,,2013-03-19 12:12:00,
2013-03-19 05:22:00,46.0,44.0,29.90,ENE,77,0.0,-999.0,91,-99.99,,,-99.99,,2013-03-19 12:22:00,
2013-03-19 05:32:00,46.0,44.0,29.91,ENE,77,0.0,-999.0,91,-99.99,,,-99.99,,2013-03-19 12:32:00,
2013-03-19 05:42:00,46.0,44.0,29.91,ENE,77,0.0,-999.0,91,-99.99,,,-99.99,,2013-03-19 12:42:00,
2013-03-19 05:51:00,46.0,43.0,29.91,ENE,77,0.0,-999.0,90,-99.99,,,-99.99,,2013-03-19 12:51:00,
2013-03-19 06:02:00,46.0,44.0,29.92,ENE,77,0.0,-999.0,91,-99.99,,,-99.99,,2013-03-19 13:02:00,
2013-03-19 06:11:00,46.0,44.0,29.92,ENE,77,0.0,-999.0,91,-99.99,,,-99.99,,2013-03-19 13:11:00,
2013-03-19 06:22:00,46.0,44.0,29.92,ENE,77,0.0,-999.0,91,-99.99,,,-99.99,,2013-03-19 13:22:00,
2013-03-19 06:32:00,46.0,44.0,29.92,ENE,77,0.0,-999.0,91,-99.99,,,-99.99,,2013-03-19 13:32:00,
2013-03-19 06:42:00,46.0,44.0,29.92,ENE,77,0.0,-999.0,91,-99.99,,,-99.99,,2013-03-19 13:42:00,
2013-03-19 06:52:00,45.0,42.0,29.92,ENE,77,0.0,-999.0,90,-99.99,,,-99.99,,2013-03-19 13:52:00,
2013-03-19 07:02:00,45.0,43.0,29.93,ENE,77,0.0,-999.0,91,-99.99,,,-99.99,,2013-03-19 14:02:00,
2013-03-19 07:11:00,45.0,43.0,29.93,ENE,77,0.0,-999.0,91,-99.99,,,-99.99,,2013-03-19 14:11:00,
2013-03-19 07:22:00,45.0,43.0,29.94,ENE,77,0.0,-999.0,91,-99.99,,,-99.99,,2013-03-19 14:22:00,
2013-03-19 07:32:00,45.0,43.0,29.95,ENE,77,0.0,-999.0,92,-99.99,,,-99.99,,2013-03-19 14:32:00,
2013-03-19 07:41:00,45.0,43.0,29.95,ENE,77,0.0,-999.0,92,-99.99,,,-99.99,,2013-03-19 14:41:00,
2013-03-19 07:52:00,45.0,43.0,29.96,ENE,77,0.0,-999.0,92,-99.99,,,-99.99,,2013-03-19 14:52:00,
2013-03-19 08:02:00,45.0,43.0,29.97,ENE,77,0.0,-999.0,92,-99.99,,,-99.99,,2013-03-19 15:02:00,
2013-03-19 08:12:00,45.0,43.0,29.97,ENE,77,0.0,-999.0,92,-99.99,,,-99.99,,2013-03-19 15:12:00,
2013-03-19 08:22:00,45.0,43.0,29.97,ENE,77,0.0,-999.0,92,-99.99,,,-99.99,,2013-03-19 15:22:00,
2013-03-19 08:33:00,46.0,44.0,29.98,ENE,77,0.0,-999.0,93,-99.99,,,-99.99,,2013-03-19 15:33:00,
2013-03-19 08:43:00,46.0,44.0,29.98,ENE,77,0.0,-999.0,93,-99.99,,,-99.99,,2013-03-19 15:43:00,
2013-03-19 08:52:00,47.0,45.0,29.98,ENE,77,0.0,-999.0,93,-99.99,,,-99.99,,2013-03-19 15:52:00,
2013-03-19 09:03:00,48.0,46.0,29.98,ENE,77,0.0,-999.0,92,-99.99,,,-99.99,,2013-03-19 16:03:00,
2013-03-19 09:12:00,48.0,46.0,29.98,ENE,77,0.0,-999.0,92,-99.99,,,-99.99,,2013-03-19 16:12:00,
2013-03-19 09:23:00,48.0,46.0,29.98,ENE,77,0.0,-999.0,92,-99.99,,,-99.99,,2013-03-19 16:23:00,
2013-03-19 09:33:00,51.0,47.0,29.98,ENE,77,0.0,-999.0,86,-99.99,,,-99.99,,2013-03-19 16:33:00,
2013-03-19 09:43:00,51.0,47.0,29.98,ENE,77,0.0,-999.0,86,-99.99,,,-99.99,,2013-03-19 16:43:00,
2013-03-19 09:54:00,51.0,47.0,29.98,ENE,77,0.0,-999.0,86,-99.99,,,-99.99,,2013-03-19 16:54:00,
2013-03-19 10:02:00,54.0,48.0,29.98,ENE,78,0.0,-999.0,81,-99.99,,,-99.99,,2013-03-19 17:02:00,
2013-03-19 10:13:00,56.0,49.0,29.98,ENE,69,0.0,-999.0,78,-99.99,,,-99.99,,2013-03-19 17:13:00,
2013-03-19 10:23:00,56.0,49.0,29.98,ENE,69,0.0,-999.0,78,-99.99,,,-99.99,,2013-03-19 17:23:00,
2013-03-19 10:34:00,57.0,50.0,29.98,ENE,71,0.0,-999.0,76,-99.99,,,-99.99,,2013-03-19 17:34:00,
2013-03-19 10:43:00,57.0,50.0,29.98,ENE,71,0.0,-999.0,76,-99.99,,,-99.99,,2013-03-19 17:43:00,
2013-03-19 10:52:00,58.0,50.0,29.98,ENE,71,0.0,-999.0,75,-99.99,,,-99.99,,2013-03-19 17:52:00,
2013-03-19 11:02:00,60.0,51.0,29.98,East,94,0.0,-999.0,72,-99.99,,,-99.99,,2013-03-19 18:02:00,
2013-03-19 11:13:00,60.0,51.0,29.98,East,94,0.0,-999.0,72,-99.99,,,-99.99,,2013-03-19 18:13:00,
2013-03-19 11:22:00,61.0,50.0,29.98,NE,38,1.0,-999.0,68,-99.99,,,-99.99,,2013-03-19 18:22:00,
2013-03-19 11:33:00,63.0,52.0,29.96,NE,35,0.0,-999.0,67,-99.99,,,-99.99,,2013-03-19 18:33:00,
2013-03-19 11:42:00,63.0,52.0,29.96,NE,35,0.0,-999.0,67,-99.99,,,-99.99,,2013-03-19 18:42:00,
2013-03-19 11:52:00,64.0,52.0,29.96,NE,52,0.0,-999.0,65,-99.99,,,-99.99,,2013-03-19 18:52:00,
2013-03-19 12:02:00,65.0,52.0,29.96,ENE,67,1.0,-999.0,62,-99.99,,,-99.99,,2013-03-19 19:02:00,
2013-03-19 12:11:00,65.0,52.0,29.96,ENE,67,1.0,-999.0,62,-99.99,,,-99.99,,2013-03-19 19:11:00,
2013-03-19 12:21:00,66.0,51.0,29.96,ENE,66,0.0,-999.0,59,-99.99,,,-99.99,,2013-03-19 19:21:00,
2013-03-19 12:32:00,68.0,50.0,29.96,NE,47,1.0,-999.0,53,-99.99,,,-99.99,,2013-03-19 19:32:00,
2013-03-19 12:42:00,68.0,50.0,29.96,NE,47,1.0,-999.0,53,-99.99,,,-99.99,,2013-03-19 19:42:00,
2013-03-19 12:52:00,69.0,48.0,29.95,ESE,105,1.0,-999.0,47,-99.99,,,-99.99,,2013-03-19 19:52:00,
2013-03-19 13:02:00,70.0,49.0,29.95,ESE,108,1.0,-999.0,47,-99.99,,,-99.99,,2013-03-19 20:02:00,
2013-03-19 13:11:00,71.0,50.0,29.93,ENE,74,0.0,-999.0,48,-99.99,,,-99.99,,2013-03-19 20:11:00,
2013-03-19 13:22:00,71.0,50.0,29.93,ENE,74,0.0,-999.0,48,-99.99,,,-99.99,,2013-03-19 20:22:00,
2013-03-19 13:32:00,72.0,52.0,29.93,East,88,1.0,-999.0,50,-99.99,,,-99.99,,2013-03-19 20:32:00,
2013-03-19 13:42:00,72.0,52.0,29.93,East,88,1.0,-999.0,50,-99.99,,,-99.99,,2013-03-19 20:42:00,
2013-03-19 13:52:00,72.0,53.0,29.92,ENE,74,1.0,-999.0,51,-99.99,,,-99.99,,2013-03-19 20:52:00,
2013-03-19 14:02:00,73.0,53.0,29.92,NNE,26,1.0,-999.0,50,-99.99,,,-99.99,,2013-03-19 21:02:00,
2013-03-19 14:11:00,73.0,52.0,29.91,ENE,66,1.0,-999.0,48,-99.99,,,-99.99,,2013-03-19 21:11:00,
2013-03-19 14:22:00,73.0,52.0,29.91,ENE,66,1.0,-999.0,48,-99.99,,,-99.99,,2013-03-19 21:22:00,
2013-03-19 14:33:00,73.0,52.0,29.91,ENE,66,1.0,-999.0,48,-99.99,,,-99.99,,2013-03-19 21:33:00,
2013-03-19 14:42:00,73.0,52.0,29.91,ENE,66,1.0,-999.0,48,-99.99,,,-99.99,,2013-03-19 21:42:00,
2013-03-19 14:52:00,72.0,51.0,29.92,East,86,2.0,-999.0,47,-99.99,,,-99.99,,2013-03-19 21:52:00,
2013-03-19 15:03:00,72.0,52.0,29.91,ESE,113,1.0,-999.0,49,-99.99,,,-99.99,,2013-03-19 22:03:00,
2013-03-19 15:12:00,72.0,52.0,29.91,ESE,113,1.0,-999.0,49,-99.99,,,-99.99,,2013-03-19 22:12:00,
2013-03-19 15:22:00,71.0,50.0,29.91,SE,138,2.0,-999.0,48,-99.99,,,-99.99,,2013-03-19 22:22:00,
2013-03-19 15:32:00,70.0,48.0,29.90,East,93,2.0,-999.0,46,-99.99,,,-99.99,,2013-03-19 22:32:00,
2013-03-19 15:42:00,70.0,49.0,29.91,NE,50,1.0,-999.0,47,-99.99,,,-99.99,,2013-03-19 22:42:00,
2013-03-19 15:52:00,70.0,49.0,29.91,NE,50,1.0,-999.0,47,-99.99,,,-99.99,,2013-03-19 22:52:00,
2013-03-19 16:02:00,71.0,49.0,29.91,East,90,1.0,-999.0,46,-99.99,,,-99.99,,2013-03-19 23:02:00,
2013-03-19 16:11:00,71.0,49.0,29.91,East,90,1.0,-999.0,46,-99.99,,,-99.99,,2013-03-19 23:11:00,
2013-03-19 16:21:00,70.0,50.0,29.91,NE,34,1.0,-999.0,49,-99.99,,,-99.99,,2013-03-19 23:21:00,
2013-03-19 16:32:00,69.0,50.0,29.91,ENE,72,1.0,-999.0,51,-99.99,,,-99.99,,2013-03-19 23:32:00,
2013-03-19 16:42:00,69.0,50.0,29.91,ENE,72,1.0,-999.0,51,-99.99,,,-99.99,,2013-03-19 23:42:00,
2013-03-19 16:51:00,69.0,48.0,29.90,East,96,0.0,-999.0,48,-99.99,,,-99.99,,2013-03-19 23:51:00,
2013-03-19 17:02:00,70.0,49.0,29.90,NE,54,1.0,-999.0,48,-99.99,,,-99.99,,2013-03-20 00:02:00,
2013-03-19 17:12:00,70.0,49.0,29.90,NE,54,1.0,-999.0,48,-99.99,,,-99.99,,2013-03-20 00:12:00,
2013-03-19 17:22:00,70.0,50.0,29.90,East,97,0.0,-999.0,49,-99.99,,,-99.99,,2013-03-20 00:22:00,
2013-03-19 17:32:00,70.0,50.0,29.89,NE,44,0.0,-999.0,50,-99.99,,,-99.99,,2013-03-20 00:32:00,
2013-03-19 17:42:00,70.0,50.0,29.89,NE,44,0.0,-999.0,50,-99.99,,,-99.99,,2013-03-20 00:42:00,
2013-03-19 17:52:00,69.0,51.0,29.90,ESE,123,0.0,-999.0,52,-99.99,,,-99.99,,2013-03-20 00:52:00,
2013-03-19 18:02:00,69.0,52.0,29.90,ENE,65,0.0,-999.0,54,-99.99,,,-99.99,,2013-03-20 01:02:00,
2013-03-19 18:11:00,69.0,52.0,29.90,ENE,65,0.0,-999.0,54,-99.99,,,-99.99,,2013-03-20 01:11:00,
2013-03-19 18:22:00,68.0,52.0,29.90,ESE,121,0.0,-999.0,57,-99.99,,,-99.99,,2013-03-20 01:22:00,
2013-03-19 18:32:00,67.0,53.0,29.91,ESE,103,0.0,-999.0,60,-99.99,,,-99.99,,2013-03-20 01:32:00,
2013-03-19 18:42:00,67.0,53.0,29.91,ESE,103,0.0,-999.0,60,-99.99,,,-99.99,,2013-03-20 01:42:00,
2013-03-19 18:52:00,65.0,52.0,29.91,ESE,118,0.0,-999.0,62,-99.99,,,-99.99,,2013-03-20 01:52:00,
2013-03-19 19:02:00,64.0,52.0,29.91,East,101,0.0,-999.0,64,-99.99,,,-99.99,,2013-03-20 02:02:00,
2013-03-19 19:11:00,64.0,52.0,29.91,East,101,0.0,-999.0,64,-99.99,,,-99.99,,2013-03-20 02:11:00,
2013-03-19 19:21:00,62.0,51.0,29.91,East,89,0.0,-999.0,68,-99.99,,,-99.99,,2013-03-20 02:21:00,
2013-03-19 19:32:00,61.0,52.0,29.92,East,91,0.0,-999.0,71,-99.99,,,-99.99,,2013-03-20 02:32:00,
2013-03-19 19:42:00,61.0,52.0,29.92,East,91,0.0,-999.0,71,-99.99,,,-99.99,,2013-03-20 02:42:00,
2013-03-19 19:52:00,60.0,51.0,29.93,ESE,107,0.0,-999.0,73,-99.99,,,-99.99,,2013-03-20 02:52:00,
2013-03-19 20:01:00,60.0,51.0,29.93,ESE,107,0.0,-999.0,73,-99.99,,,-99.99,,2013-03-20 03:01:00,
2013-03-19 20:11:00,58.0,50.0,29.93,NE,48,0.0,-999.0,76,-99.99,,,-99.99,,2013-03-20 03:11:00,
2013-03-19 20:22:00,58.0,50.0,29.93,NE,48,0.0,-999.0,76,-99.99,,,-99.99,,2013-03-20 03:22:00,
2013-03-19 20:33:00,58.0,51.0,29.93,NE,48,0.0,-999.0,78,-99.99,,,-99.99,,2013-03-20 03:33:00,
2013-03-19 20:42:00,58.0,51.0,29.93,NE,48,0.0,-999.0,78,-99.99,,,-99.99,,2013-03-20 03:42:00,
2013-03-19 20:52:00,57.0,50.0,29.94,NE,48,0.0,-999.0,78,-99.99,,,-99.99,,2013-03-20 03:52:00,
2013-03-19 21:02:00,57.0,50.0,29.94,NE,48,0.0,-999.0,78,-99.99,,,-99.99,,2013-03-20 04:02:00,
2013-03-19 21:12:00,57.0,50.0,29.94,NE,48,0.0,-999.0,78,-99.99,,,-99.99,,2013-03-20 04:12:00,
2013-03-19 21:22:00,57.0,51.0,29.94,NE,48,0.0,-999.0,80,-99.99,,,-99.99,,2013-03-20 04:22:00,
2013-03-19 21:32:00,56.0,50.0,29.95,NE,48,0.0,-999.0,79,-99.99,,,-99.99,,2013-03-20 04:32:00,
2013-03-19 21:42:00,56.0,50.0,29.95,NE,48,0.0,-999.0,79,-99.99,,,-99.99,,2013-03-20 04:42:00,
2013-03-19 21:52:00,56.0,50.0,29.95,NE,48,0.0,-999.0,79,-99.99,,,-99.99,,2013-03-20 04:52:00,
2013-03-19 22:02:00,56.0,50.0,29.95,NE,48,0.0,-999.0,80,-99.99,,,-99.99,,2013-03-20 05:02:00,
2013-03-19 22:12:00,55.0,49.0,29.96,NE,48,0.0,-999.0,80,-99.99,,,-99.99,,2013-03-20 05:12:00,
2013-03-19 22:22:00,55.0,49.0,29.96,NE,48,0.0,-999.0,80,-99.99,,,-99.99,,2013-03-20 05:22:00,
2013-03-19 22:32:00,55.0,50.0,29.96,NE,48,0.0,-999.0,82,-99.99,,,-99.99,,2013-03-20 05:32:00,
2013-03-19 22:42:00,55.0,50.0,29.96,NE,48,0.0,-999.0,82,-99.99,,,-99.99,,2013-03-20 05:42:00,
2013-03-19 22:52:00,55.0,50.0,29.95,NE,48,0.0,-999.0,82,-99.99,,,-99.99,,2013-03-20 05:52:00,
2013-03-19 23:02:00,55.0,50.0,29.97,NE,48,0.0,-999.0,83,-99.99,,,-99.99,,2013-03-20 06:02:00,
2013-03-19 23:12:00,55.0,50.0,29.97,NE,48,0.0,-999.0,83,-99.99,,,-99.99,,2013-03-20 06:12:00,
2013-03-19 23:21:00,55.0,50.0,29.97,NE,48,0.0,-999.0,83,-99.99,,,-99.99,,2013-03-20 06:21:00,
2013-03-19 23:32:00,55.0,50.0,29.97,NE,48,0.0,-999.0,83,-99.99,,,-99.99,,2013-03-20 06:32:00,
2013-03-19 23:42:00,55.0,50.0,29.97,NE,48,0.0,-999.0,83,-99.99,,,-99.99,,2013-03-20 06:42:00,
2013-03-19 23:52:00,55.0,50.0,29.97,NE,48,0.0,-999.0,83,-99.99,,,-99.99,,2013-03-20 06:52:00,